EDT,Max TemperatureF,Mean TemperatureF,Min TemperatureF,Max Dew PointF,MeanDew PointF,Min DewpointF,Max Humidity, Mean Humidity, Min Humidity, Max Sea Level PressureIn, Mean Sea Level PressureIn, Min Sea Level PressureIn, Max VisibilityMiles, Mean VisibilityMiles, Min VisibilityMiles, Max Wind SpeedMPH, Mean Wind SpeedMPH, Max Gust SpeedMPH,PrecipitationIn, CloudCover, Events, WindDirDegrees
2013-5-1,78,64,50,57,52,47,89,67,43,30.28,30.23,30.15,10,10,10,12,6,18,0.00,0,,139
2013-5-2,75,62,50,53,46,40,68,54,37,30.32,30.24,30.17,10,10,10,10,7,16,0.00,0,,137
2013-5-3,75,62,50,44,41,35,68,46,26,30.20,30.15,30.09,10,10,10,18,9,23,0.00,0,,135
2013-5-4,70,60,50,44,38,32,67,47,25,30.16,30.11,30.06,10,10,10,17,11,23,0.00,0,,124
2013-5-5,73,60,48,42,36,28,71,44,22,30.11,30.05,29.99,10,10,10,16,9,24,0.00,0,,114
2013-5-6,73,61,50,50,44,29,75,53,36,30.06,30.01,29.97,10,10,10,13,9,20,0.00,2,,123
2013-5-7,71,62,55,55,53,50,84,73,53,30.03,30.00,29.97,10,10,10,13,8,16,0.00,5,,95
2013-5-8,73,64,55,58,53,49,90,74,47,30.01,29.97,29.94,10,10,2,13,5,,0.15,6,Rain-Thunderstorm,35
2013-5-9,79,64,51,55,50,45,100,66,32,30.01,29.97,29.94,10,9,2,8,2,16,0.00,4,,11
2013-5-10,73,65,57,62,58,53,96,86,64,29.97,29.85,29.78,10,8,1,28,8,46,0.88,6,Rain-Thunderstorm,215
2013-5-11,55,53,46,59,47,43,97,89,75,29.88,29.85,29.79,10,6,2,24,10,34,0.26,8,Rain,313
2013-5-12,50,42,36,35,31,27,86,65,46,30.11,30.00,29.94,10,10,10,23,13,31,0.00,4,,281
2013-5-13,51,42,33,33,28,26,83,62,39,30.19,30.15,30.10,10,10,10,16,7,21,0.00,1,,307
2013-5-14,66,50,35,48,37,29,82,62,43,30.18,30.03,29.86,10,10,9,17,5,24,0.00,2,,172
2013-5-15,84,68,53,59,53,44,83,59,34,29.84,29.78,29.75,10,10,10,21,8,32,0.00,0,Thunderstorm,245
2013-5-16,80,66,53,54,48,43,89,55,28,29.98,29.88,29.80,10,10,10,8,3,,0.00,2,Thunderstorm,269
2013-5-17,79,63,48,61,53,45,100,74,39,30.13,30.09,29.99,10,7,0,9,3,,0.00,3,Fog,84
2013-5-18,82,67,53,58,51,42,75,57,36,30.14,30.08,30.03,10,10,9,10,5,16,0.00,2,,129
2013-5-19,82,70,60,62,60,55,93,73,52,30.07,30.01,29.96,10,9,3,13,7,18,0.00,1,,151
2013-5-20,81,70,60,68,64,59,100,82,62,30.03,29.97,29.90,10,6,2,16,7,20,0.00,4,,172
2013-5-21,86,77,68,67,63,57,93,68,40,29.92,29.86,29.80,10,8,5,16,9,24,0.00,1,,202
2013-5-22,84,73,64,63,59,56,78,61,42,29.85,29.79,29.73,10,10,9,21,10,34,0.00,2,Rain-Thunderstorm,211
2013-5-23,77,58,42,63,54,39,94,80,48,30.05,29.85,29.77,10,9,3,24,10,32,0.05,6,Rain,261
2013-5-24,50,43,33,38,34,31,92,71,54,30.35,30.24,30.07,10,10,8,20,15,26,0.00,6,,353
2013-5-25,61,45,30,37,33,29,92,63,33,30.40,30.34,30.30,10,9,6,13,4,23,0.00,0,,355
2013-5-26,66,50,35,39,32,29,86,52,27,30.35,30.30,30.26,10,10,10,12,5,17,0.00,0,,7
2013-5-27,60,50,39,50,42,34,86,69,52,30.28,30.21,30.08,10,10,6,10,3,,0.07,4,Rain,138
2013-5-28,84,68,53,65,58,50,96,74,46,30.07,30.00,29.93,10,9,5,21,9,31,0.08,5,Rain-Thunderstorm,204
2013-5-29,89,79,70,60,58,53,68,52,36,30.07,30.02,29.96,10,10,10,20,12,29,0.00,0,,226
2013-5-30,89,76,62,63,60,56,90,60,34,30.17,30.11,30.06,10,10,6,16,6,21,0.00,0,,204
2013-5-31,87,75,63,66,62,58,94,71,43,30.08,30.03,29.96,10,10,2,29,8,40,0.25,3,Rain-Thunderstorm,223